DELTA 4 R/B, 40535

Orbit data source: Space-Track

DELTA 4 R/B, 40535 is space debris in MEO originally from a launch on Wed, 25 Mar 2015 UTC launched from the Air Force Eastern Test Range (AFETR). Debris objects in space refer to the collection of defunct objects orbiting the Earth. Examples of debris include non-operational satellites, rocket bodies, and fragments generated from explosions, collisions, or faulty payload assembly.

Loading next visibility...
Identifier
40535, 2015-013B
Orbit
MEO
Last TLE update
1 day ago
Origin
Flag of USUnited Launch Alliance/Lockheed Martin (US)
Manufacturer
ULA Decatur
Mission
2))"
Bus & Motor
DCSS-4, RL10B-2
Mass
2,850 kg wet, 2,850 kg dry
Launch date (UTC)
2015-03-25 (10 years ago)
Launch vehicle
Unknown
Launch site
Air Force Eastern Test Range (AFETR)
Object type
Payload
Rocket body
Debris
Shape & HBR
Cyl + 1 Nozzle, Unknown HBR
Radar Cross Section
43.982 m², Large (>1 m²)

Expand to show TLE details & history

TLE from 1 day ago
0 DELTA 4 R/B
1 40535U 15013B   25183.19382402  .00000020  00000-0  00000+0 0  9996
2 40535  52.7448 229.6159 0032682  61.8816 298.5181  1.92974744 72385
Epoch: 2025-07-02T04:39Z
TLE epoch observation values (Epoch: 2025-07-02T04:39:06.395Z)
Latitude
-0.00002°
Longitude
-120.62564°
Altitude
20,831.968 km
Speed
3.83 km/s
True Right ascension
15h 18m 31s
True Declination
0° 00' 00"
Sunlit
Object was in daylight at epoch
Visualization orbit readout
Latitude
-4.63547°
Longitude
62.85495°
Altitude
20,924.562 km
Speed
3.817 km/s
Apparent Right ascension
04h 10m 39s
Apparent Declination
-14° 07' 14"
Sunlit
Object is in daylight
Visualization observer readout
Local Sidereal Time
23:41:46
Azimuth
115.582° SE
Elevation
7.553°
Doppler factor
1
Orbital elements
Apogee altitude
20,963.223 km
Perigee altitude
20,785.091 km
Semi-major axis
27,252.294 km
Eccentricity
0.00327
Inclination
52.7448°
RAAN
229.6159°
Arg. of periapsis
61.8816°
True anomaly
Unknown
Mean anomaly
298.5181°
Eccentric anomaly
Unknown
Mean motion
0.48243 °/min
Orbital period
746.21 mins
BSTAR
0
Loading maneuver chart data...
Loading SW <> Apogee altitude chart data...
Loading historical data...
Loading historical data...
Loading historical data...
Loading historical data...
Loading historical data...
Loading historical data...
Loading historical data...

DELTA 4 R/B Visibility forecast

Observer location: undefined°, undefined°

Span
Click to sort rows by Start time (UTC) header in descending order
Start Az.
Max El. time (UTC)
Max El. Az.
Max El.
End time (UTC)
End Az.
361 mins2025-07-04 05:54:11.671Z229.487° WSW2025-07-04 09:31:11.671Z2.021° NNE43.765°2025-07-04 11:55:11.671Z112.571° SE
|